Location: Ash Observatory
(39.7321°N, 75.2004°W)
Time: 16:28:45
(UTC-04:00)

ISS - Pass Details

Date: 31 March 2019
Orbit: 408 x 410 km, 51.6° (Epoch: 22 April)

Event Time Altitude Azimuth Distance (km) Brightness Sun altitude
Rises 21:13:23 0° 314° (NW) 2,338 1.3 -21.0°
Reaches altitude 10° 21:16:12 10° 340° (NNW) 1,474 -0.4 -21.5°
Maximum altitude 21:18:06 14° 15° (NNE) 1,239 -1.3 -21.9°
Enters shadow 21:18:08 14° 16° (NNE) 1,239 -1.3 -21.9°
